Résultats

P GD Nom Temps Laps Pts Statuts
10 222 A. Cairoli0:34:45.4951925Terminé
2+6 25 C. Desalle0:34:50.0251922Terminé
3+1 84 J. Herlings0:34:54.4841920Terminé
4-2 243 T. Gajser0:34:56.3411918Terminé
5+1 21 G. Paulin0:34:57.0751916Terminé
6+1 461 R. Febvre0:35:01.0491915Terminé
7+5 89 J. Van Horebeek0:35:17.4361914Terminé
8+10 27 A. Jasikonis0:35:23.6881913Terminé
9+8 777 E. Bobryshev0:35:29.6391912Terminé
10-1 4 A. Tonus0:35:30.3311911Terminé
11-6 259 G. Coldenhoff0:35:32.3561910Terminé
12+2 99 M. Anstie0:35:39.607199Terminé
13-10 12 M. Nagl0:35:52.356198Terminé
14+6 7 T. Leok0:36:04.873197Terminé
15-5 22 K. Strijbos0:36:09.259196Terminé
16-3 77 A. Lupino0:36:13.229195Terminé
17+5 9 K. De Dycker0:36:17.867194Terminé
18-2 17 J.A.Butrón0:36:22.530193Terminé
19-4 141 M. Desprey0:36:42.230192Terminé
20+4 71 D. Graulus0:34:48.750181Terminé
21-2 909 L. Neurauter0:34:52.087180Terminé
22+13 232 M. Michek0:35:05.566180Terminé
23+2 119 R. Houghton0:35:14.336180Terminé
24+8 212 J. Dewulf0:35:27.059180Terminé
25+4 878 S. Pezzuto0:35:56.476180Terminé
26+10 49 J. Irt0:36:05.067180Terminé
27+3 831 T. Wysocki0:36:11.460180Terminé
28+6 93 J. Bengtsson0:36:12.411180Terminé
29-2 73 P. Irt0:36:17.619180Terminé
30+3 311 P. Bartos0:36:29.371180Terminé
31-3 227 M. Finek0:35:33.686170Terminé
32-9 191 J. Romancik0:22:22.124110Terminé
33-22 911 J. Tixier0:17:43.80490Terminé
34-13 999 R. Goncalves0:18:31.76190Terminé
35-9 47 B. Boulard0:16:50.08880Terminé
36-5 337 R. Weschta0:04:37.30520Terminé

Compétitions

Moto XGP

Competition
MXGP of Czech Republic
Type
Race 2
Circuit
Loket
Départ.
23.07.17 17:10
End Date
23.07.17 17:50
Laps
19
Vainqueur
Antonio Cairoli